Time,TemperatureF,DewpointF,PressureIn,WindDirection,WindDirectionDegrees,WindSpeedMPH,WindSpeedGustMPH,Humidity,HourlyPrecipIn,Conditions,Clouds,dailyrainin,SolarRadiationWatts/m^2,SoftwareType,DateUTC
2013-05-05 00:02:00,52.0,38.0,-100.00,ESE,107,2.0,4.0,58,0.00,,,0.00,0.000000,,2013-05-05 04:02:00,
2013-05-05 00:33:00,51.0,39.0,-100.00,ESE,108,1.0,4.0,63,0.00,,,0.00,0.000000,,2013-05-05 04:33:00,
2013-05-05 00:43:00,51.0,39.0,-100.00,ESE,108,1.0,4.0,63,0.00,,,0.00,0.000000,,2013-05-05 04:43:00,
2013-05-05 00:53:00,51.0,39.0,-100.00,ESE,108,1.0,4.0,63,0.00,,,0.00,0.000000,,2013-05-05 04:53:00,
2013-05-05 01:02:00,51.0,39.0,-100.00,ESE,108,1.0,4.0,63,0.00,,,0.00,0.000000,,2013-05-05 05:02:00,
2013-05-05 01:32:00,48.0,39.0,-100.00,East,93,1.0,2.0,71,0.00,,,0.00,0.000000,,2013-05-05 05:32:00,
2013-05-05 01:42:00,48.0,39.0,-100.00,East,93,1.0,2.0,71,0.00,,,0.00,0.000000,,2013-05-05 05:42:00,
2013-05-05 01:52:00,48.0,39.0,-100.00,East,93,1.0,2.0,71,0.00,,,0.00,0.000000,,2013-05-05 05:52:00,
2013-05-05 02:02:00,48.0,39.0,-100.00,East,93,1.0,2.0,71,0.00,,,0.00,0.000000,,2013-05-05 06:02:00,
2013-05-05 02:32:00,46.0,39.0,-100.00,East,79,0.0,0.0,75,0.00,,,0.00,0.000000,,2013-05-05 06:32:00,
2013-05-05 02:42:00,46.0,39.0,-100.00,East,79,0.0,0.0,75,0.00,,,0.00,0.000000,,2013-05-05 06:42:00,
2013-05-05 02:52:00,46.0,39.0,-100.00,East,79,0.0,0.0,75,0.00,,,0.00,0.000000,,2013-05-05 06:52:00,
2013-05-05 03:01:00,46.0,39.0,-100.00,East,79,0.0,0.0,75,0.00,,,0.00,0.000000,,2013-05-05 07:01:00,
2013-05-05 03:32:00,44.0,39.0,-100.00,ESE,104,1.0,3.0,81,0.00,,,0.00,0.000000,,2013-05-05 07:32:00,
2013-05-05 03:42:00,44.0,39.0,-100.00,ESE,104,1.0,3.0,81,0.00,,,0.00,0.000000,,2013-05-05 07:42:00,
2013-05-05 03:52:00,44.0,39.0,-100.00,ESE,104,1.0,3.0,81,0.00,,,0.00,0.000000,,2013-05-05 07:52:00,
2013-05-05 04:02:00,44.0,39.0,-100.00,ESE,104,1.0,3.0,81,0.00,,,0.00,0.000000,,2013-05-05 08:02:00,
2013-05-05 04:32:00,43.0,38.0,-100.00,ESE,104,2.0,5.0,82,0.00,,,0.00,0.000000,,2013-05-05 08:32:00,
2013-05-05 04:42:00,43.0,38.0,-100.00,ESE,104,2.0,5.0,82,0.00,,,0.00,0.000000,,2013-05-05 08:42:00,
2013-05-05 04:53:00,43.0,38.0,-100.00,ESE,104,2.0,5.0,82,0.00,,,0.00,0.000000,,2013-05-05 08:53:00,
2013-05-05 05:01:00,43.0,38.0,-100.00,ESE,104,2.0,5.0,82,0.00,,,0.00,0.000000,,2013-05-05 09:01:00,
2013-05-05 05:33:00,41.0,37.0,-100.00,East,96,2.0,3.0,87,0.00,,,0.00,0.000000,,2013-05-05 09:33:00,
2013-05-05 05:42:00,41.0,37.0,-100.00,East,96,2.0,3.0,87,0.00,,,0.00,0.000000,,2013-05-05 09:42:00,
2013-05-05 05:52:00,41.0,37.0,-100.00,East,96,2.0,3.0,87,0.00,,,0.00,0.000000,,2013-05-05 09:52:00,
2013-05-05 06:03:00,41.0,37.0,-100.00,East,96,2.0,3.0,87,0.00,,,0.00,0.000000,,2013-05-05 10:03:00,
2013-05-05 06:32:00,40.0,38.0,-100.00,East,82,2.0,4.0,91,0.00,,,0.00,0.000000,,2013-05-05 10:32:00,
2013-05-05 06:42:00,40.0,38.0,-100.00,East,82,2.0,4.0,91,0.00,,,0.00,0.000000,,2013-05-05 10:42:00,
2013-05-05 06:53:00,40.0,38.0,-100.00,East,82,2.0,4.0,91,0.00,,,0.00,0.000000,,2013-05-05 10:53:00,
2013-05-05 07:02:00,40.0,38.0,-100.00,East,82,2.0,4.0,91,0.00,,,0.00,0.000000,,2013-05-05 11:02:00,
2013-05-05 07:32:00,46.0,39.0,-100.00,East,85,3.0,5.0,76,0.00,,,0.00,47.000000,,2013-05-05 11:32:00,
2013-05-05 07:42:00,46.0,39.0,-100.00,East,85,3.0,5.0,76,0.00,,,0.00,47.000000,,2013-05-05 11:42:00,
2013-05-05 07:52:00,46.0,39.0,-100.00,East,85,3.0,5.0,76,0.00,,,0.00,47.000000,,2013-05-05 11:52:00,
2013-05-05 08:02:00,46.0,39.0,-100.00,East,85,3.0,5.0,76,0.00,,,0.00,47.000000,,2013-05-05 12:02:00,
2013-05-05 09:32:00,57.0,40.0,-100.00,ESE,105,8.0,11.0,52,-99.99,,,0.00,472.000000,,2013-05-05 13:32:00,
2013-05-05 09:42:00,57.0,40.0,-100.00,ESE,105,8.0,11.0,52,-99.99,,,0.00,472.000000,,2013-05-05 13:42:00,
2013-05-05 09:52:00,57.0,40.0,-100.00,ESE,105,8.0,11.0,52,-99.99,,,0.00,472.000000,,2013-05-05 13:52:00,
2013-05-05 10:02:00,57.0,40.0,-100.00,ESE,105,8.0,11.0,52,-99.99,,,0.00,472.000000,,2013-05-05 14:02:00,
2013-05-05 10:32:00,62.0,37.0,-100.00,East,89,7.0,16.0,40,0.00,,,0.00,677.000000,,2013-05-05 14:32:00,
2013-05-05 10:42:00,62.0,37.0,-100.00,East,89,7.0,16.0,40,0.00,,,0.00,677.000000,,2013-05-05 14:42:00,
2013-05-05 10:52:00,62.0,37.0,-100.00,East,89,7.0,16.0,40,0.00,,,0.00,677.000000,,2013-05-05 14:52:00,
2013-05-05 11:02:00,62.0,37.0,-100.00,East,89,7.0,16.0,40,0.00,,,0.00,677.000000,,2013-05-05 15:02:00,
2013-05-05 11:33:00,66.0,33.0,-100.00,ESE,116,10.0,17.0,29,0.00,,,0.00,884.000000,,2013-05-05 15:33:00,
2013-05-05 11:43:00,66.0,33.0,-100.00,ESE,116,10.0,17.0,29,0.00,,,0.00,884.000000,,2013-05-05 15:43:00,
2013-05-05 11:53:00,66.0,33.0,-100.00,ESE,116,10.0,17.0,29,0.00,,,0.00,884.000000,,2013-05-05 15:53:00,
2013-05-05 12:03:00,66.0,33.0,-100.00,ESE,116,10.0,17.0,29,0.00,,,0.00,884.000000,,2013-05-05 16:03:00,
2013-05-05 12:32:00,68.0,30.0,-100.00,ESE,118,10.0,14.0,24,0.00,,,0.00,1017.000000,,2013-05-05 16:32:00,
2013-05-05 12:42:00,68.0,30.0,-100.00,ESE,118,10.0,14.0,24,0.00,,,0.00,1017.000000,,2013-05-05 16:42:00,
2013-05-05 12:53:00,68.0,30.0,-100.00,ESE,118,10.0,14.0,24,0.00,,,0.00,1017.000000,,2013-05-05 16:53:00,
2013-05-05 13:02:00,68.0,30.0,-100.00,ESE,118,10.0,14.0,24,0.00,,,0.00,1017.000000,,2013-05-05 17:02:00,
2013-05-05 13:32:00,71.0,30.0,-100.00,East,79,8.0,17.0,22,0.00,,,0.00,1110.000000,,2013-05-05 17:32:00,
2013-05-05 13:42:00,71.0,30.0,-100.00,East,79,8.0,17.0,22,0.00,,,0.00,1110.000000,,2013-05-05 17:42:00,
2013-05-05 13:52:00,71.0,30.0,-100.00,East,79,8.0,17.0,22,0.00,,,0.00,1110.000000,,2013-05-05 17:52:00,
2013-05-05 14:01:00,71.0,30.0,-100.00,East,79,8.0,17.0,22,0.00,,,0.00,1110.000000,,2013-05-05 18:01:00,
2013-05-05 14:32:00,73.0,26.0,-100.00,SE,134,9.0,17.0,17,0.00,,,0.00,1124.000000,,2013-05-05 18:32:00,
2013-05-05 14:42:00,73.0,26.0,-100.00,SE,134,9.0,17.0,17,0.00,,,0.00,1124.000000,,2013-05-05 18:42:00,
2013-05-05 14:52:00,73.0,26.0,-100.00,SE,134,9.0,17.0,17,0.00,,,0.00,1124.000000,,2013-05-05 18:52:00,
2013-05-05 15:01:00,73.0,26.0,-100.00,SE,134,9.0,17.0,17,0.00,,,0.00,1124.000000,,2013-05-05 19:01:00,
2013-05-05 16:32:00,74.0,18.0,-100.00,ESE,120,9.0,17.0,12,-99.99,,,0.00,935.000000,,2013-05-05 20:32:00,
2013-05-05 16:42:00,74.0,18.0,-100.00,ESE,120,9.0,17.0,12,-99.99,,,0.00,935.000000,,2013-05-05 20:42:00,
2013-05-05 16:52:00,74.0,18.0,-100.00,ESE,120,9.0,17.0,12,-99.99,,,0.00,935.000000,,2013-05-05 20:52:00,
2013-05-05 17:02:00,74.0,18.0,-100.00,ESE,120,9.0,17.0,12,-99.99,,,0.00,935.000000,,2013-05-05 21:02:00,
2013-05-05 18:34:00,71.0,12.0,-100.00,SE,124,8.0,14.0,10,-99.99,,,0.00,481.000000,,2013-05-05 22:34:00,
2013-05-05 18:42:00,71.0,12.0,-100.00,SE,124,8.0,14.0,10,-99.99,,,0.00,481.000000,,2013-05-05 22:42:00,
2013-05-05 18:52:00,71.0,12.0,-100.00,SE,124,8.0,14.0,10,-99.99,,,0.00,481.000000,,2013-05-05 22:52:00,
2013-05-05 19:02:00,71.0,12.0,-100.00,SE,124,8.0,14.0,10,-99.99,,,0.00,481.000000,,2013-05-05 23:02:00,
2013-05-05 19:32:00,71.0,14.0,-100.00,ESE,120,7.0,13.0,11,0.00,,,0.00,307.000000,,2013-05-05 23:32:00,
2013-05-05 19:42:00,71.0,14.0,-100.00,ESE,120,7.0,13.0,11,0.00,,,0.00,307.000000,,2013-05-05 23:42:00,
2013-05-05 19:52:00,71.0,14.0,-100.00,ESE,120,7.0,13.0,11,0.00,,,0.00,307.000000,,2013-05-05 23:52:00,
2013-05-05 20:01:00,71.0,14.0,-100.00,ESE,120,7.0,13.0,11,0.00,,,0.00,307.000000,,2013-05-06 00:01:00,
2013-05-05 21:32:00,58.0,16.0,-100.00,SE,131,2.0,4.0,19,-99.99,,,0.00,3.000000,,2013-05-06 01:32:00,
2013-05-05 21:42:00,58.0,16.0,-100.00,SE,131,2.0,4.0,19,-99.99,,,0.00,3.000000,,2013-05-06 01:42:00,
2013-05-05 21:52:00,58.0,16.0,-100.00,SE,131,2.0,4.0,19,-99.99,,,0.00,3.000000,,2013-05-06 01:52:00,
2013-05-05 22:02:00,58.0,16.0,-100.00,SE,131,2.0,4.0,19,-99.99,,,0.00,3.000000,,2013-05-06 02:02:00,
2013-05-05 22:32:00,56.0,20.0,-100.00,SE,134,3.0,6.0,24,0.00,,,0.00,0.000000,,2013-05-06 02:32:00,
2013-05-05 22:42:00,56.0,20.0,-100.00,SE,134,3.0,6.0,24,0.00,,,0.00,0.000000,,2013-05-06 02:42:00,
2013-05-05 22:52:00,56.0,20.0,-100.00,SE,134,3.0,6.0,24,0.00,,,0.00,0.000000,,2013-05-06 02:52:00,
2013-05-05 23:02:00,56.0,20.0,-100.00,SE,134,3.0,6.0,24,0.00,,,0.00,0.000000,,2013-05-06 03:02:00,
2013-05-05 23:33:00,55.0,22.0,-100.00,ESE,119,4.0,7.0,27,0.00,,,-99.99,0.000000,,2013-05-06 03:33:00,
2013-05-05 23:43:00,55.0,22.0,-100.00,ESE,119,4.0,7.0,27,0.00,,,-99.99,0.000000,,2013-05-06 03:43:00,
2013-05-05 23:53:00,55.0,22.0,-100.00,ESE,119,4.0,7.0,27,0.00,,,-99.99,0.000000,,2013-05-06 03:53:00,